This demonstration page uses our WeatherBlox Daily Observations layout. Learn more.

Left ArrowRight Arrow

Hourly Observations for May 26, 2018

Temp ( °F °C ) Dew Point ( °F °C ) Humidity (%) Winds ( mph kmh ) Pressure ( in mb ) Visibility ( mi km ) Precip ( " mm )
12:51 am 00:51 Clear 79 26.1 26 -3.3 14 14 WNW 12 19 29.74 1007 10 16 0.00 0.00
1:51 am 01:51 Clear 78 25.6 27 -2.8 15 15 NW 9 15 29.73 1007 10 16 0.00 0.00
2:51 am 02:51 Clear 75 23.9 26 -3.3 16 16 WNW 5 7 29.73 1007 10 16 0.00 0.00
3:51 am 03:51 Clear 73 22.8 26 -3.3 17 17 WNW 8 13 29.73 1007 10 16 0.00 0.00
4:51 am 04:51 Clear 72 22.2 25 -3.9 17 17 WNW 5 7 29.72 1007 10 16 0.00 0.00
5:51 am 05:51 Sunny 69 20.6 26 -3.3 20 20 W 6 9 29.73 1007 10 16 0.00 0.00
6:51 am 06:51 Sunny 73 22.8 26 -3.3 17 17 NNW 3 6 29.75 1007 10 16 0.00 0.00
7:51 am 07:51 Sunny 76 24.4 26 -3.3 16 16 Calm 29.74 1007 10 16 0.00 0.00
8:51 am 08:51 Sunny 78 25.6 26 -3.3 15 15 Calm 29.75 1008 10 16 0.00 0.00
9:51 am 09:51 Sunny 79 26.1 25 -3.9 14 14 Calm 29.75 1008 10 16 0.00 0.00
10:51 am 10:51 Sunny 84 28.9 26 -3.3 12 12 ESE 9 15 29.72 1007 10 16 0.00 0.00
11:51 am 11:51 Sunny 88 31.1 27 -2.8 11 11 E 8 13 29.69 1005 10 16 0.00 0.00
12:51 pm 12:51 Sunny 90 32.2 24 -4.4 9 9 Calm 29.65 1004 10 16 0.00 0.00
1:51 pm 13:51 Sunny 96 35.6 21 -6.1 6 6 ENE 9 15 29.61 1003 10 16 0.00 0.00
2:51 pm 14:51 Sunny 97 36.1 15 -9.4 5 5 VRB 5 7 29.58 1002 10 16 0.00 0.00
3:51 pm 15:51 Sunny 97 36.1 12 -11.1 4 4 W 17 28 29.56 1001 10 16 0.00 0.00
4:51 pm 16:51 Sunny 90 32.2 16 -8.9 6 6 NW 26 43 29.58 1002 10 16 0.00 0.00
5:51 pm 17:51 Sunny 86 30 21 -6.1 9 9 NW 25 41 29.61 1003 10 16 0.00 0.00
6:51 pm 18:51 Sunny 84 28.9 21 -6.1 10 10 NNW 23 37 29.63 1003 10 16 0.00 0.00
7:51 pm 19:51 Clear 81 27.2 20 -6.7 10 10 NW 10 17 29.65 1004 10 16 0.00 0.00
8:51 pm 20:51 Clear 80 26.7 20 -6.7 10 10 NNW 14 22 29.66 1005 10 16 0.00 0.00
9:51 pm 21:51 Clear 76 24.4 20 -6.7 12 12 NNW 10 17 29.70 1006 10 16 0.00 0.00
10:51 pm 22:51 Clear 73 22.8 19 -7.2 13 13 WNW 7 11 29.70 1006 10 16 0.00 0.00
11:51 pm 23:51 Clear 67 19.4 19 -7.2 16 16 WNW 10 17 29.70 1006 10 16 0.00 0.00

Powered by AerisWeather